Regional Weather Roundup
Issued by NWS Pendleton, OR

Home | Current Version | Previous Version | Text Only | Print | Product List | Glossary On
Versions: 1 2 3 4 5 6 7 8 9 10 11 12 13 14 15 16 17 18 19 20 21 22 23 24 25 26 27 28 29 30 31 32 33 34 35 36 37 38 39 40 41 42 43 44 45 46 47 48 49 50
000
ASUS46 KPDT 301225
RWRPDT
PENDLETON REGIONAL WEATHER ROUNDUP
NATIONAL WEATHER SERVICE PENDLETON OREGON
500 AM PDT SUN AUG 30 2015

NOTE: FAIR INDICATES FEW OR NO CLOUDS BELOW 12,000 FEET WITH NO
SIGNIFICANT WEATHER AND/OR OBSTRUCTIONS TO VISIBILITY.

# INDICATES UNOFFICIAL STATION AND DATA

WAZ520-301310-
EAST SLOPES OF WASHINGTON CASCADES

CITY            SKY/WX      TMP DP  RH  WIND    PRES   REMARKS
#BULLFROG 2SW   N/A         50  49  96  CALM    27.43R
#BUMPING DAM    N/A         48  N/A N/A S1      N/A
#CLE ELUM HS    N/A         52  51  96  CALM    29.76R
#CLE ELUM LAKE  N/A         49  47  93  CALM    29.70R
#CLIFFDEL 2NW   N/A         50  48  93  CALM    N/A
#GLENWOOD       N/A         54  52  93  SE5     29.79R
#MANASTASH CYN  N/A         50  45  83  CALM    29.79R
#NELSON         N/A         53  51  93  CALM    29.74R
#NELSON 3SW     N/A         50  48  93  CALM    29.91R
#NILE           N/A         53  49  86  CALM    29.02R
#RONALD 2NW     N/A         53  -2  10  N1      29.70S
#SNOWDEN        N/A         51  44  77  CALM    N/A
#TEANAWAY 4NE   N/A         53  53  100 CALM    N/A
#TROUT LAKE 1NE N/A         53  52  96  CALM    29.81R
$$

WAZ521-301310-
SIMCOE HIGHLANDS

CITY            SKY/WX      TMP DP  RH  WIND    PRES   REMARKS
#BICKLETON HS   N/A         51  46  83  W2      N/A
#CENTERVILLE 4W N/A         57  51  80  CALM    29.60R
#CENTERVILLE 1SWN/A         54  49  83  CALM    29.77R
#GOLDENDALE     N/A         58  51  77  SE18G29 N/A
#GOLDENDALE 1NE N/A         56  47  72  SW1     N/A
#GOLDENDALE 5WNWN/A         57  51  80  W12     29.79R
#GOODNOE HILLS  N/A         58  53  83  W5      N/A
#LYLE 6NE       N/A         55  52  90  SW6     29.78R
$$

WAZ026-301310-
KITTITAS VALLEY

CITY            SKY/WX      TMP DP  RH  WIND    PRES   REMARKS
ELLENSBURG AP   LGT RAIN    56  49  77  NW8     29.79R
6HR MIN TEMP:   55; 6HR MAX TEMP:   59; 6HR PCP:  TRACE;

YTC-OPS AREA    MOCLDY      52  46  80  S35G45  29.72F
#ELLENSBURG CWU N/A         55  49  80  NW7     29.69R
#ELLENSBURG 3NE N/A         54  49  83  CALM    29.80R
#ELLENSBURG 1E  N/A         56  46  69  CALM    N/A
#KITTITAS 4N    N/A         56  46  69  CALM    29.80R
#KITTITAS 3S    N/A         55  49  80  W3      29.72R
#THORP 6N       N/A         52  50  93  N3      29.73R
$$

WAZ027-301310-
YAKIMA VALLEY

CITY            SKY/WX      TMP DP  RH  WIND    PRES   REMARKS
SUNNYSIDE AP    MOCLDY      59  50  72  SE5     29.80F
YAKIMA AIRPORT  CLOUDY      66  47  50  S16G26  29.78S
6HR MIN TEMP:   64; 6HR MAX TEMP:   66; 6HR PCP:  TRACE;

YAKIMA-VAGABOND MOCLDY      61  46  58  S17G24  29.78
#DONALD 2NE     N/A         62  42  48  S1      28.66R
#GRANDVIEW      N/A         61  49  65  E2      29.79S
#MABTON         N/A         64  52  65  W5      29.80R
#MOXEE 2E       N/A         62  36  38  S6      29.76R
#NACHES 2SW     N/A         56  51  83  CALM    29.79R
#OUTLOOK DOT    N/A         N/A N/A N/A E5      N/A
#SELAH 8E       N/A         57  47  69  S15G24  N/A
#TERRACE HTS    N/A         61  49  65  S3      29.72R
#TOPPENISH      N/A         59  50  72  CALM    29.69R
#WAPATO 4NE     N/A         62  42  48  S1      28.66R
#W YAKIMA       N/A         62  49  62  S3      29.74R
#WILEY CITY 3W  N/A         62  44  52  SW2     29.75R
$$

WAZ028-301310-
LOWER COLUMBIA BASIN...WASHINGTON

CITY            SKY/WX      TMP DP  RH  WIND    PRES   REMARKS
PASCO           MOCLDY      61  50  67  SW9     29.81S
6HR MIN TEMP:   59; 6HR MAX TEMP:   65;

#BENTON CITY    N/A         65  50  58  SW8     29.68F
#CONNELL 5N     N/A         54  47  77  CALM    29.76F
#CONNELL 5NW    N/A         56  47  72  E2      29.74S
#ELTOPIA 6NW    N/A         57  51  80  S1      28.78S
#KAHLOTUS       N/A         54  45  71  S7      29.77S
#KENNEWICK      N/A         50  49  96  CALM    27.43R
#KENNEWICK 3S   N/A         59  50  72  N5      29.78S
#PATERSON       N/A         56  51  83  CALM    29.78S
#PROSSER        N/A         64  47  54  SW1     29.77S
#SAGEMOOR 2W    N/A         56  51  83  CALM    29.63S
#TOUCHET 2S     N/A         52  45  77  NW1     29.78S
#WEST PASCO     N/A         63  51  65  S1      29.76R
$$

WAZ029-301310-
FOOTHILLS OF THE BLUES...WASHINGTON

CITY            SKY/WX      TMP DP  RH  WIND    PRES   REMARKS
WALLA WALLA AP  PTCLDY      58  43  57  E5      29.81F
6HR MIN TEMP:   57; 6HR MAX TEMP:   69;

#DAYTON SCHOOL  N/A         55  39  55  NE1     29.84F
#LOWDEN 2SE     N/A         51  45  80  CALM    29.78F
#PRESCOTT       N/A         47  42  83  CALM    29.78S
#SUDBURY        N/A         52  N/A N/A CALM    N/A
#WHITMAN COLLEGEN/A         58  46  64  S3      29.82F
#WAITSBURG 8N   N/A         48  24  39  CALM    29.68F
#WALLA WALLA U  N/A         58  47  67  CALM    29.78S
#WHITMAN MISSIONN/A         52  47  83  CALM    29.80S
$$

WAZ030-301310-
BLUE MOUNTAINS...WASHINGTON

CITY            SKY/WX      TMP DP  RH  WIND    PRES   REMARKS
#SKI BLUEWOOD   N/A         44  39  82  SW1     29.91F
$$

ORZ009-041-WAZ024-301310-
COLUMBIA RIVER GORGE

CITY            SKY/WX      TMP DP  RH  WIND    PRES   REMARKS
THE DALLES AP   CLOUDY      61  55  81  NW8     29.83R
6HR MIN TEMP:   60; 6HR MAX TEMP:   66; 6HR PCP:  TRACE;

#ARLINGTON AIRPON/A         59  51  75  CALM    26.80
#CELILO DOT     N/A         64  54  70  SW2     N/A
#MOSIER 1S      N/A         56  51  83  SW8     29.87R
#RUFUS DOT      N/A         63  55  75  N1      N/A

$$

ORZ510-301310-
NORTH CENTRAL OREGON

CITY            SKY/WX      TMP DP  RH  WIND    PRES   REMARKS
#CHENOWITH 1W   N/A         54  53  96  W21     N/A
#GRASS VALLEY 1SN/A         55  47  74  W8      29.82R
#KENT DOT       N/A         60  42  51  N14     N/A
#MAUPIN SCHOOL  N/A         65  52  63  W8      29.84R
#MORO SCHOOL    N/A         60  52  75  CALM    29.85S
#SHANIKO 5WSW   N/A         56  41  57  S16     N/A
#SHANIKO 4NW    N/A         56  42  59  SW5     29.88S
#TYGH VALLEY 2NEN/A         63  51  65  W6      29.78R
#WAPANITIA AIRPON/A         59  49  69  W3      29.80R
#WASCO DOT      N/A         57  52  83  E2      N/A
#WASCO AIRPORT  N/A         59  49  69  N1      N/A
#WASCO 5NE      N/A         57  50  77  CALM    29.78S
$$

ORZ511-301310-
CENTRAL OREGON

CITY            SKY/WX      TMP DP  RH  WIND    PRES   REMARKS
BEND AIRPORT    MOCLDY      55  39  55  S12     29.94R
PRINEVILLE AP   PTCLDY      57  41  55  S13     29.92S
REDMOND AIRPORT PTCLDY      58  41  53  S16G24  29.91S
6HR MIN TEMP:   55; 6HR MAX TEMP:   61;

#BEND-AWBREY    N/A         56  42  59  SW6     29.78S
#BEND-KIM LN    N/A         53  43  69  CALM    29.90S
#CULVER         N/A         58  43  57  S3      29.85S
#LAKE BILLY CHINN/A         60  22  23  SW1     29.95R
#MADRAS         N/A         61  40  46  SW9     N/A
#POWELL BUTTE 3EN/A         59  41  51  S9      N/A
#POWELL BUTTE   N/A         58  40  51  W9      29.56R
#PRINEVILLE 3N  N/A         57  44  62  S5      29.76S
#WARM SPRINGS   N/A         66  46  48  E7      29.84R

$$


ORZ509-301310-
EAST SLOPES OF OREGON CASCADES

CITY            SKY/WX      TMP DP  RH  WIND    PRES   REMARKS
#BLUE BOX PASS  N/A         48  -4  11  N6      N/A
#CAMP SHERMAN   N/A         56  45  66  SW1     29.79R
#LA PINE 4NW    N/A         48  40  74  CALM    29.86R
#SISTERS AIRPOR N/A         57  49  75  N7      30.17S
#SISTERS 1NW    N/A         60  40  47  NE3     N/A
#SISTERS 3N     N/A         57  42  57  SW3     29.93R
#SUNRIVER       N/A         53  43  69  S3      29.68S
#TUMALO 3W      N/A         56  42  59  SW8     29.67F

$$

ORZ044-301310-
LOWER COLUMBIA BASIN...OREGON

CITY            SKY/WX      TMP DP  RH  WIND    PRES   REMARKS
HERMISTON       MOCLDY      53  45  74  E3      29.81F
6HR MIN TEMP:   51; 6HR MAX TEMP:   63;

#BOARDMAN SCHOOLN/A         55  47  74  CALM    29.82F
#BOARDMAN 8SW   N/A         58  47  67  CALM    29.78F
#ECHO 8SW       N/A         54  44  69  CALM    29.83R
#IONE SCHOOL    N/A         66  45  47  CALM    29.79F
#IRRIGON 4NW    N/A         53  49  86  E3      N/A
#UMATILLA SCHOOLN/A         53  50  89  CALM    29.84F
#UMATILLA       N/A         56  45  66  CALM    29.73S
$$

ORZ507-301310-
NORTHERN FOOTHILLS OF THE BLUES

CITY            SKY/WX      TMP DP  RH  WIND    PRES   REMARKS
PENDLETON AIRPT PTCLDY      51  42  71  SE3     29.84R
6HR MIN TEMP:   50; 6HR MAX TEMP:   61;

#ADAMS 3WNW     N/A         46  39  76  CALM    29.79R
#ATHENA         N/A         58  43  57  CALM    29.80R
#CAYUSE         N/A         56  44  64  CALM    29.78R
#HELIX SCHOOL   N/A         48  40  74  CALM    29.78S
#HELIX 3N       N/A         55  43  64  S5      29.82S
#HOLDMAN 5SE    N/A         53  43  69  SE2     29.84F
#HOLDMAN 6E     N/A         55  43  64  NW1     29.59S
#M-F GROVE ELEM N/A         56  42  59  CALM    29.81F
#M-FREEWATER 5SEN/A         59  45  60  CALM    29.83S
#PENDLETON DNTN N/A         50  37  61  NE1     29.87S
#PDT AQUATIC CTRN/A         50  35  56  CALM    29.83S
#PDT SUNRIDGE   N/A         49  44  83  CALM    29.85S
#PENDLETON 7NW  N/A         51  40  66  SE6     32.07S
#TUTUILLA       N/A         48  42  80  CALM    29.82R
#UMAPINE 2E     N/A         53  46  77  CALM    29.79
#WESTON SCHOOL  N/A         60  40  47  W5      29.75S

$$

ORZ508-301310-
SOUTHERN FOOTHILLS OF THE BLUES

CITY            SKY/WX      TMP DP  RH  WIND    PRES   REMARKS
#AJAX           N/A         59  41  51  S7      29.79F
#CONDON SCHOOL  N/A         58  45  62  S12     29.83F
#CONDON 5W      N/A         56  42  59  S10     29.85F
#FOSSIL SCHOOL  N/A         66  51  58  CALM    29.94S
#HEPPNER EOC    N/A         56  41  57  CALM    29.71S
#HEPPNER 4NE    N/A         58  41  53  CALM    29.76R
#LEXINGTON 2SE  N/A         60  43  53  SE6     29.80S
#OLEX 4N        N/A         57  47  69  S3      29.81F
#RUGGS 2SW      N/A         57  42  57  SW7     29.77F

$$

ORZ502-503-301310-
BLUE MOUNTAINS

CITY            SKY/WX      TMP DP  RH  WIND    PRES   REMARKS
MEACHAM         CLEAR       38  35  89  CALM    29.91S
6HR MIN TEMP:   38; 6HR MAX TEMP:   49;

#BATTLE MTN DOT N/A         47  46  96  S6      N/A
#HEPPNER 15SE   N/A         53  41  64  E1      29.81S
#LONG CREEK HS  N/A         50  41  71  CALM    29.90R
#N POWDER DOT   N/A         43  42  96  NW1     N/A
#PIKES PEAK     N/A         60  41  49  S8      27.99S
#TOLLGATE       N/A         45  38  76  CALM    29.82S
#TROY SCHOOL    N/A         55  45  69  CALM    29.66S
#UKIAH          N/A         36  34  92  W1      29.85R
#WESTON 4E      N/A         56  41  57  E1      29.69S
$$

ORZ505-301310-
JOHN DAY BASIN

CITY            SKY/WX      TMP DP  RH  WIND    PRES   REMARKS
JOHN DAY        CLEAR       57  39  51  SW13    29.96R
#JOHN DAY KJDY  N/A         50  50  100 CALM    30.21R
#DAYVILLE SCHOOLN/A         58  38  47  SE7     29.90S
#MITCHELL       N/A         57  44  62  CALM    30.08F
#MITCHELL 8NW   N/A         57  39  51  CALM    29.96R
#MONUMENT HS    N/A         49  38  66  CALM    29.91R
#MT. VERNON 5SE N/A         53  38  57  E1      29.93R
#SPRAY SCHOOL   N/A         51  N/A N/A CALM    N/A
$$

ORZ506-301310-
OCHOCO AND JOHN DAY HIGHLANDS

CITY            SKY/WX      TMP DP  RH  WIND    PRES   REMARKS
#PINE MTN OBS   N/A         42  38  86  SE18G29 N/A    WCI 34
#PRAIRIE CITY   N/A         45  40  82  CALM    30.02R
#SENECA         N/A         41  N/A N/A CALM    N/A
#SENECA 9NW     N/A         37  32  82  CALM    29.79R
$$

ORZ049-301310-
GRANDE RONDE VALLEY

CITY            SKY/WX      TMP DP  RH  WIND    PRES   REMARKS
LA GRANDE       CLEAR       45  30  55  SW3     29.90F
#COVE           N/A         49  44  83  CALM    29.93S
#COVE SCHOOL    N/A         48  41  77  CALM    29.94S
#COVE 6NW       N/A         44  38  79  CALM    29.86R
#ELGIN 3N       N/A         45  37  73  CALM    29.89S
#ELGIN 1E       N/A         46  39  76  CALM    N/A
#ISLAND CITY 4N N/A         57  56  96  CALM    29.85R
#LADD CYN DOT   N/A         53  40  61  SE3     N/A
#LA GRANDE ELEM N/A         50  42  74  CALM    29.93S
#UNION 1S       N/A         53  42  66  E1      29.70R
$$

ORZ050-301310-
WALLOWA COUNTY

CITY            SKY/WX      TMP DP  RH  WIND    PRES   REMARKS
#ENTERPRISE HS  N/A         51  43  74  E1      29.94F
#IMNAHA SCHOOL  N/A         61  47  60  S2      29.87F
#IMNAHA 10S     N/A         55  43  64  SW3     29.91S
#JOSEPH 3N      N/A         45  38  76  E1      29.96S
#JOSEPH 3W      N/A         49  44  83  SW2     29.79F
#LOSTINE        N/A         50  43  77  E1      29.58F
#MT HOWARD 8000 N/A         44  37  76  SW2     30.07F
#PROMISE 1S     N/A         50  41  71  CALM    29.89S
#WALLOWA SCHOOL N/A         48  42  80  CALM    29.88S



$$



USA.gov is the U.S. government's official web portal to all federal, state and local government web resources and services.